Regional Weather Roundup
Issued by NWS State College, PA

Home | Current Version | Previous Version | Graphics & Text | Print | Product List | Glossary On
Versions: 1 2 3 4 5 6 7 8 9 10 11 12 13 14 15 16 17 18 19 20 21 22 23 24 25 26 27 28 29 30 31 32 33 34 35 36 37 38 39 40 41 42 43 44 45 46 47 48 49 50
000
ASUS41 KCTP 280810
RWRCTP

REGIONAL WEATHER ROUNDUP
NATIONAL WEATHER SERVICE STATE COLLEGE PA
400 AM EDT TUE MAR 28 2017

Note: "fair" indicates few or no clouds below 12,000 feet with no
significant weather and/or obstructions to visibility.

* = STATION THAT DOES NOT REPORT PRECIPITATION /E.G. RAIN...SNOW...ETC/
    THUNDER OR FOG.

PAZ002>004-007>009-013>016-020>023-029>032-280900-
WESTERN PENNSYLVANIA

CITY           SKY/WX    TMP DP  RH WIND       PRES   REMARKS
ERIE           CLOUDY    47  45  93 CALM      29.86F
MEADVILLE      CLOUDY    50  46  86 E3        29.86F
FRANKLIN*      CLOUDY    48  43  81 NE5       29.86F
NEW CASTLE     LGT RAIN  51  49  92 W5        29.87R
BEAVER COUNTY  NOT AVBL
BUTLER*        CLOUDY    52  50  93 CALM      29.86F
PITTSBURGH INT CLOUDY    58  51  78 NW5       29.83F
PITTSBURGH     CLOUDY    59  50  72 SW7       29.83F
INDIANA*       CLOUDY    50  48  93 CALM      29.87F
LATROBE        CLOUDY    57  55  94 S6        29.85F
WASHINGTON CO* CLOUDY    55  52  88 SW7       29.86F
$$

PAZ004>006-010>012-017>019-024>028-033>037-041-042-045-046-049>053-280900-
CENTRAL PENNSYLVANIA

CITY           SKY/WX    TMP DP  RH WIND       PRES   REMARKS
BRADFORD       CLOUDY    46  46 100 CALM      29.87F
DUBOIS         LGT RAIN  49  45  86 N7        29.85F FOG
CLEARFIELD       N/A    N/A N/A N/A MISG      29.86F
JOHNSTOWN      CLOUDY    56  50  80 SW8       29.86F
ALTOONA        MOCLDY    54  49  83 CALM      29.87F
STATE COLLEGE  CLOUDY    48  48  98 CALM      29.86F FOG
WILLIAMSPORT   PTCLDY    44  44 100 CALM      29.89S FOG
SELINSGROVE    CLOUDY    46  46 100 CALM      29.89F FOG
FT INDIANTOWN  CLOUDY    48  48 100 CALM      29.88F FOG
CAPITAL CITY   MOCLDY    52  47  83 SE6       29.88F HAZE
HARRISBURG     CLOUDY    49  49 100 W5        29.87F FOG
YORK           FOG       44  44 100 CALM      29.87F VSB 1/4
$$

PAZ038>040-043-044-047-048-054-055-060>062-067>071-280900-
EASTERN PENNSYLVANIA

CITY           SKY/WX    TMP DP  RH WIND       PRES   REMARKS
SCRANTON       CLOUDY    47  46  97 CALM      29.88F FOG
MOUNT POCONO   CLOUDY    47  47 100 E3        29.90F FOG
ALLENTOWN      CLOUDY    49  45  86 E5        29.91F FOG
QUAKERTOWN*    CLOUDY    48  48 100 CALM      29.92S
READING        CLOUDY    49  49 100 CALM      29.89F
LANCASTER      PTCLDY    50  50 100 NE7       29.88F FOG
COATESVILLE    FOG       50  50 100 CALM      29.90F VSB<1/4
POTTSTOWN      CLOUDY    49  48  97 NE6       29.92F FOG
BLUE BELL      CLOUDY    50  50 100 E5        29.90S
DOYLESTOWN     CLOUDY    48  48 100 CALM      29.91S
WILLOW GROVE   NOT AVBL
NORTH PHILA    CLOUDY    51  50  96 E7        29.92F FOG
PHILADELPHIA   CLOUDY    51  50  96 NE7       29.91F FOG
$$




USA.gov is the U.S. government's official web portal to all federal, state and local government web resources and services.